Hourly Data Report for May 13, 2020

MIRAMICHI RCS
NEW BRUNSWICK
Current Station Operator: ECCC - MSC

47°00'34.000" N
65°27'54.000" W
33.00 m
8100989
71744
ACQ

Download Data

Hourly Data (May 2020)
Hourly Data Report for May 13, 2020
TIME
LST
Temp Definition
°C
Dew Point Definition
°C
Rel Hum Definition
%
Precip. Amount Definition
mm

Wind Dir Definition
10's deg

Wind Spd Definition
km/h
Visibility Definition
km
Stn Press Definition
kPa
Hmdx Definition


Wind Chill Definition


Weather Definition


00:00 1.6 0.4 92 LegendMM 28 13   100.23     LegendNANA
01:00 1.7 0.2 90 LegendMM 28 10   100.22     LegendNANA
02:00 1.8 -0.2 86 LegendMM 28 10   100.20     LegendNANA
03:00 1.9 -0.5 85 LegendMM 27 9   100.19     LegendNANA
04:00 1.4 -1.3 82 LegendMM 27 10   100.20     LegendNANA
05:00 1.4 -2.3 77 LegendMM 29 9   100.24     LegendNANA
06:00 1.7 -3.8 67 LegendMM 28 13   100.29     LegendNANA
07:00 2.3 -4.1 62 LegendMM 30 15   100.34     LegendNANA
08:00 3.8 -4.8 53 LegendMM 30 17   100.40     LegendNANA
09:00 4.9 -5.7 46 LegendMM 30 22   100.43     LegendNANA
10:00 5.4 -5.8 44 LegendMM 30 23   100.44     LegendNANA
11:00 7.7 -5.7 38 LegendMM 30 23   100.42     LegendNANA
12:00 8.1 -6.5 35 LegendMM 29 27   100.40     LegendNANA
13:00 8.0 -6.5 35 LegendMM 31 29   100.42     LegendNANA
14:00 8.3 -5.7 37 LegendMM 30 27   100.44     LegendNANA
15:00 8.4 -6.2 35 LegendMM 30 25   100.45     LegendNANA
16:00 8.8 -7.0 32 LegendMM 30 25   100.49     LegendNANA
17:00 8.8 -8.5 28 LegendMM 30 25   100.54     LegendNANA
18:00 7.5 -9.9 28 LegendMM 31 24   100.60     LegendNANA
19:00 8.0 -9.7 27 LegendMM 30 17   100.60     LegendNANA
20:00 6.6 -9.4 31 LegendMM 31 8   100.66     LegendNANA
21:00 4.9 -7.3 41 LegendMM 28 10   100.72     LegendNANA
22:00 4.3 -7.5 42 LegendMM 27 9   100.73     LegendNANA
23:00 4.0 -8.0 41 LegendMM 27 10   100.74     LegendNANA

Notes on Data Quality.

Legend

  • E = Estimated
  • M = Missing
  • NA = Not Available*
  • [empty] = Indicates an unobserved value
Date modified: